[[{"header":{"parameterUnit":"m.s-1","parameterCategory":1,"la1":30.2991,"la2":30.254,"lo1":-89.0895,"lo2":-89.0444,"dy":0.0017,"dx":0.0017,"nx":28,"ny":28,"refTime":"2025-06-04T09:00:00:Z","depth":0,"parameterNumber":2,"parameterNumberName":"U-component_of_WINDS"},"data":[0,0,0,0,0,0,0,0,0,0,0,0,0,0,0,0,0,0,0,0,0,0,0,0,0,0,0,0,0,0,0,0,0,0,0,0,0,0,0,0,0,0,0,0,0,0,0,0,0,0,0,0,0,0,0,0,0,0,-0.095,-0.0948,0,-0.0806,-0.0804,-0.0803,-0.0705,-0.0705,-0.0704,-0.0703,-0.0554,-0.0551,-0.0548,0,0,0,0,0,0,0,0,0,0,0,0,0,-0.1138,-0.1135,-0.095,-0.0948,-0.0946,-0.0806,-0.0804,-0.0802,-0.0706,-0.0705,-0.0704,-0.0703,-0.0555,-0.0551,-0.0547,0,0,0,0,0,0,0,0,0,0,0,0,0,-0.1032,-0.1135,-0.095,-0.0881,-0.0873,-0.0806,-0.0804,-0.0802,-0.0706,-0.0705,-0.0704,-0.0703,-0.0557,-0.0552,-0.0547,-0.0536,0,0,-0.0531,-0.0529,0,0,0,0,0,0,0,0,-0.1038,-0.1025,-0.0893,-0.0886,-0.0877,-0.0773,-0.0816,-0.0713,-0.0706,-0.0769,-0.0703,-0.0702,-0.0627,-0.0617,-0.0592,-0.0529,-0.0523,-0.0531,-0.0528,-0.0526,-0.0524,0,0,0,0,0,0,0,-0.1045,-0.1031,-0.0893,-0.0891,-0.0881,-0.0857,-0.084,-0.0796,-0.0706,-0.0764,-0.0756,-0.0741,-0.0623,-0.0597,-0.0588,-0.0521,-0.0531,-0.0527,-0.0524,-0.0522,-0.0442,-0.0443,0,0,0,0,0,0,-0.1064,-0.1037,-0.0897,-0.0888,-0.0957,-0.0854,-0.0836,-0.0807,-0.0706,-0.069,-0.0742,-0.0737,-0.0606,-0.0594,-0.0582,-0.0563,-0.0526,-0.0521,-0.0518,-0.0441,-0.0442,-0.0443,0,0,0,0,0,0,-0.1068,-0.1052,-0.0903,-0.0961,-0.094,-0.0852,-0.082,-0.0805,-0.0779,-0.0689,-0.0673,-0.0732,-0.0605,-0.0589,-0.0548,-0.0556,-0.0519,-0.0514,-0.044,-0.0441,-0.0442,-0.0525,0,0,0,0,0,0,-0.1074,-0.1055,-0.105,-0.0961,-0.0937,-0.0873,-0.0821,-0.0803,-0.077,-0.0763,-0.0676,-0.066,-0.0603,-0.0556,-0.0543,-0.0549,-0.051,-0.0439,-0.044,-0.0442,-0.0521,-0.0529,-0.0535,0,0,0,0,0,-0.1081,-0.1079,-0.1051,-0.1034,-0.093,-0.0873,-0.0859,-0.0794,-0.0772,-0.0766,-0.0709,-0.0663,-0.0558,-0.0553,-0.0538,-0.0541,-0.0438,-0.044,-0.0442,-0.0518,-0.0527,-0.0535,0,0,0,0,0,0,-0.117,-0.1066,-0.1033,-0.1002,-0.0948,-0.0857,-0.0848,-0.0806,-0.0756,-0.075,-0.067,-0.0651,-0.0619,-0.0576,-0.0573,-0.0526,-0.0492,-0.0491,-0.0555,-0.0563,-0.0571,-0.0581,-0.0506,0,0,0,0,0,-0.1186,-0.115,-0.106,-0.1041,-0.1016,-0.0937,-0.091,-0.0864,-0.0804,-0.078,-0.072,-0.0662,-0.0616,-0.0587,-0.054,-0.0514,-0.0494,-0.0509,-0.0517,-0.0523,-0.0523,-0.0506,-0.0511,-0.0449,-0.0449,-0.0449,0,0,-0.1219,-0.1157,-0.1139,-0.1058,-0.101,-0.0973,-0.0918,-0.0882,-0.0853,-0.0774,-0.0732,-0.0686,-0.0617,-0.0584,-0.0566,-0.0547,-0.0536,-0.0525,-0.0531,-0.0527,-0.0508,-0.0514,-0.052,-0.0451,-0.0451,-0.045,0,0,-0.1259,-0.121,-0.1188,-0.1142,-0.107,-0.1018,-0.1013,-0.0929,-0.0895,-0.0852,-0.0792,-0.0757,-0.0679,-0.0632,-0.0598,-0.0621,-0.0577,-0.0608,-0.0646,-0.063,-0.0635,-0.0639,-0.0647,-0.065,-0.0608,-0.0609,-0.0609,0,-0.1309,-0.1252,-0.1182,-0.1149,-0.1115,-0.1042,-0.102,-0.0978,-0.0894,-0.0872,-0.0852,-0.0753,-0.0701,-0.0656,-0.0662,-0.0637,-0.0628,-0.0617,-0.064,-0.0643,-0.0646,-0.0652,-0.0656,-0.0613,-0.0612,-0.0612,-0.0611,0,-0.1316,-0.1277,-0.1268,-0.119,-0.1155,-0.1127,-0.1053,-0.1026,-0.0983,-0.0933,-0.089,-0.0825,-0.0763,-0.0749,-0.0707,-0.0698,-0.0688,-0.0655,-0.062,-0.0657,-0.0662,-0.0664,-0.0619,-0.0617,-0.0616,-0.0615,0,0,-0.1408,-0.1292,-0.129,-0.1254,-0.117,-0.1138,-0.1107,-0.1047,-0.1025,-0.097,-0.0941,-0.0877,-0.0846,-0.0808,-0.076,-0.0746,-0.0768,-0.0714,-0.0711,-0.0726,-0.0754,-0.0779,-0.0783,-0.0739,-0.0739,-0.0739,-0.0759,0,-0.1436,-0.1377,-0.1314,-0.1276,-0.1239,-0.117,-0.1143,-0.1088,-0.104,-0.1001,-0.0948,-0.0904,-0.0866,-0.0843,-0.0826,-0.0769,-0.0772,-0.0767,-0.0711,-0.0709,-0.073,-0.0785,-0.0812,-0.0834,-0.0761,-0.0761,-0.0761,0,-0.146,-0.1409,-0.1369,-0.1288,-0.127,-0.1247,-0.1187,-0.1151,-0.1087,-0.1053,-0.101,-0.0959,-0.0922,-0.0892,-0.0839,-0.0837,-0.081,-0.0779,-0.0778,-0.077,-0.0738,-0.0779,-0.084,-0.0844,-0.0764,-0.0763,-0.0763,0,-0.1532,-0.1453,-0.1418,-0.1389,-0.1294,-0.1279,-0.1239,-0.1174,-0.1142,-0.1089,-0.1067,-0.1011,-0.098,-0.0938,-0.0872,-0.0856,-0.0827,-0.0791,-0.0797,-0.0799,-0.0794,-0.0795,-0.0852,-0.0777,-0.0777,-0.0777,-0.0777,0,-0.1569,-0.1547,-0.1449,-0.1428,-0.14,-0.1328,-0.1303,-0.1256,-0.1199,-0.1167,-0.1103,-0.1074,-0.099,-0.0951,-0.0899,-0.0864,-0.085,-0.0821,-0.0808,-0.0827,-0.0831,-0.0808,-0.0805,-0.0778,-0.0778,-0.0778,-0.0778,0,-0.1644,-0.1577,-0.1535,-0.1448,-0.1426,-0.141,-0.1336,-0.1312,-0.1261,-0.1221,-0.1207,-0.1127,-0.1077,-0.1008,-0.0938,-0.0903,-0.0875,-0.0853,-0.0896,-0.0888,-0.0898,-0.0899,-0.0942,-0.0944,-0.087,-0.0871,-0.0872,0,-0.1672,-0.1653,-0.1565,-0.1539,-0.1501,-0.1461,-0.1428,-0.1355,-0.1323,-0.1249,-0.1235,-0.1181,-0.1133,-0.1058,-0.0993,-0.0938,-0.0915,-0.0934,-0.0906,-0.0926,-0.0915,-0.0917,-0.0914,-0.0941,-0.0942,-0.0943,-0.0944,0,-0.1729,-0.1697,-0.1653,-0.1597,-0.1559,-0.1511,-0.146,-0.1443,-0.1359,-0.1327,-0.1276,-0.124,-0.1168,-0.1115,-0.1052,-0.1009,-0.0962,-0.0953,-0.0951,-0.097,-0.0996,-0.0982,-0.0914,-0.0952,-0.0951,-0.0951,-0.095,-0.095,-0.1781,-0.1761,-0.1696,-0.1648,-0.1603,-0.1556,-0.153,-0.1476,-0.1432,-0.1368,-0.1328,-0.1279,-0.1215,-0.1126,-0.1085,-0.1046,-0.1026,-0.1024,-0.1024,-0.1024,-0.1031,-0.1003,-0.1034,-0.1033,-0.1033,-0.1033,-0.1033,0,-0.1835,-0.1789,-0.1746,-0.1677,-0.164,-0.16,-0.1541,-0.1512,-0.147,-0.1415,-0.137,-0.1311,-0.126,-0.1191,-0.1134,-0.1115,-0.1092,-0.1103,-0.1103,-0.1094,-0.1051,-0.1058,-0.1122,-0.1122,-0.1122,-0.1122,-0.1122,-0.1122,-0.1858,-0.1822,-0.1783,-0.1723,-0.1678,-0.163,-0.16,-0.1557,-0.1512,-0.145,-0.1407,-0.1362,-0.1301,-0.1239,-0.119,-0.117,-0.1152,-0.1169,-0.1144,-0.1105,-0.1097,-0.1089,-0.1095,-0.1166,-0.1166,-0.119,-0.119,-0.119]},{"header":{"parameterUnit":"m.s-1","parameterCategory":1,"la1":30.2991,"la2":30.254,"lo1":-89.0895,"lo2":-89.0444,"dy":0.0017,"dx":0.0017,"nx":28,"ny":28,"refTime":"2025-06-04T09:00:00:Z","depth":0,"parameterNumber":3,"parameterNumberName":"V-component_of_WINDS"},"data":[0,0,0,0,0,0,0,0,0,0,0,0,0,0,0,0,0,0,0,0,0,0,0,0,0,0,0,0,0,0,0,0,0,0,0,0,0,0,0,0,0,0,0,0,0,0,0,0,0,0,0,0,0,0,0,0,0,0,3.3233,3.3233,0,3.3211,3.3211,3.321,3.3236,3.3237,3.3238,3.3239,3.3211,3.321,3.3208,0,0,0,0,0,0,0,0,0,0,0,0,0,3.3293,3.3292,3.3233,3.3233,3.3233,3.3211,3.3211,3.321,3.3236,3.3237,3.3239,3.324,3.3212,3.321,3.3208,0,0,0,0,0,0,0,0,0,0,0,0,0,3.3269,3.3292,3.3233,3.3243,3.3244,3.3211,3.3211,3.321,3.3236,3.3238,3.3239,3.324,3.3212,3.321,3.3208,3.3162,0,0,3.32,3.3199,0,0,0,0,0,0,0,0,3.327,3.3266,3.3242,3.3242,3.3243,3.3228,3.3222,3.3194,3.3236,3.3239,3.3239,3.3241,3.3215,3.3213,3.3205,3.3161,3.316,3.32,3.3198,3.3197,3.3196,0,0,0,0,0,0,0,3.3272,3.3267,3.3224,3.3241,3.3242,3.3247,3.3245,3.3217,3.3219,3.3239,3.324,3.3238,3.3216,3.3207,3.3205,3.316,3.32,3.3197,3.3196,3.3195,3.3078,3.3077,0,0,0,0,0,0,3.3273,3.3269,3.3225,3.3224,3.3261,3.3245,3.3243,3.3231,3.3219,3.3219,3.3237,3.3239,3.3211,3.3207,3.3204,3.3151,3.3197,3.3195,3.3193,3.308,3.3078,3.3076,0,0,0,0,0,0,3.3274,3.3269,3.3226,3.3247,3.3242,3.3242,3.3229,3.323,3.3222,3.3218,3.3218,3.3228,3.3212,3.3207,3.3173,3.315,3.3194,3.3191,3.3082,3.3079,3.3077,3.3044,0,0,0,0,0,0,3.3276,3.3269,3.3253,3.3246,3.324,3.3197,3.3228,3.3229,3.3218,3.3221,3.321,3.3209,3.3213,3.3177,3.3171,3.3147,3.3189,3.3084,3.3081,3.3078,3.3047,3.304,3.3035,0,0,0,0,0,3.3278,3.3243,3.3252,3.3246,3.322,3.3195,3.3192,3.3198,3.3216,3.3199,3.3197,3.3209,3.3154,3.3173,3.3166,3.3142,3.3085,3.3081,3.3078,3.3049,3.3042,3.3035,0,0,0,0,0,0,3.3244,3.3242,3.3252,3.3214,3.3205,3.32,3.3179,3.319,3.3174,3.3177,3.3185,3.3182,3.3146,3.314,3.3162,3.3098,3.3122,3.3117,3.3103,3.3095,3.3089,3.3091,3.3187,0,0,0,0,0,3.3233,3.3215,3.3213,3.318,3.3175,3.3178,3.3167,3.3173,3.3163,3.3158,3.3154,3.3142,3.3122,3.3108,3.309,3.3047,3.3044,3.3026,3.3021,3.3016,3.3011,3.2988,3.298,3.3064,3.3064,3.3064,0,0,3.3208,3.3205,3.3192,3.3173,3.3166,3.3146,3.3174,3.315,3.3135,3.3154,3.3122,3.3118,3.3106,3.3067,3.305,3.3062,3.2987,3.3011,3.3007,3.3005,3.2983,3.2975,3.2968,3.3062,3.3062,3.3063,0,0,3.3153,3.3149,3.3121,3.3115,3.3106,3.3108,3.3102,3.3095,3.3094,3.3063,3.3077,3.3058,3.3023,3.3014,3.3005,3.2948,3.2959,3.2941,3.291,3.2888,3.2881,3.2875,3.2855,3.2847,3.2937,3.2937,3.2937,0,3.3123,3.3094,3.3105,3.3081,3.3072,3.3092,3.3063,3.3055,3.304,3.3032,3.3047,3.3005,3.2997,3.2957,3.2943,3.2935,3.2927,3.2942,3.2882,3.2876,3.287,3.2851,3.2843,3.2935,3.2935,3.2935,3.2935,0,3.3058,3.3038,3.3016,3.3003,3.2992,3.2965,3.2971,3.2958,3.2965,3.2966,3.2934,3.2926,3.2907,3.2898,3.2904,3.2858,3.2866,3.2881,3.2905,3.286,3.2842,3.2835,3.2932,3.2933,3.2933,3.2934,0,0,3.2979,3.2974,3.2966,3.2961,3.2953,3.2937,3.2911,3.2895,3.2883,3.2872,3.285,3.2821,3.2836,3.2825,3.283,3.2811,3.2767,3.2828,3.2828,3.2817,3.2716,3.2705,3.2696,3.2775,3.2773,3.2772,3.2717,0,3.2924,3.2882,3.2892,3.285,3.2831,3.285,3.2828,3.282,3.282,3.2803,3.2803,3.2782,3.2802,3.2796,3.2778,3.2776,3.2746,3.278,3.2753,3.2752,3.2755,3.2687,3.2675,3.2623,3.271,3.2709,3.2708,0,3.2853,3.2842,3.2799,3.2796,3.2788,3.2768,3.2754,3.2738,3.273,3.2731,3.2721,3.273,3.2704,3.273,3.2693,3.2716,3.2706,3.2703,3.2701,3.2698,3.2727,3.2682,3.2607,3.2599,3.2697,3.2698,3.2699,0,3.28,3.2774,3.2745,3.274,3.2735,3.2721,3.2718,3.2711,3.2701,3.2688,3.2681,3.2665,3.2656,3.2642,3.2647,3.2665,3.2609,3.2635,3.2609,3.2609,3.2596,3.2596,3.2518,3.259,3.259,3.259,3.259,0,3.2737,3.2709,3.2722,3.2703,3.2674,3.2685,3.2654,3.2653,3.2647,3.2629,3.2644,3.2626,3.2633,3.2615,3.2619,3.2588,3.2584,3.2584,3.2585,3.2582,3.2582,3.2575,3.2578,3.2588,3.2588,3.2589,3.2589,0,3.2671,3.2679,3.2649,3.2648,3.2647,3.2625,3.2623,3.2606,3.2608,3.2585,3.258,3.2582,3.2562,3.2566,3.2543,3.2546,3.2508,3.2513,3.2511,3.2512,3.2486,3.2488,3.2399,3.2388,3.2468,3.2467,3.2466,0,3.263,3.261,3.2608,3.2598,3.2595,3.2577,3.2568,3.2578,3.2567,3.2557,3.2541,3.2523,3.2509,3.2476,3.2475,3.2457,3.2463,3.2433,3.246,3.2458,3.2462,3.2463,3.2461,3.2427,3.2426,3.2425,3.2425,0,3.2557,3.2562,3.2548,3.2536,3.2525,3.2515,3.2507,3.2497,3.2507,3.2494,3.2475,3.2464,3.2443,3.2424,3.2408,3.2404,3.2415,3.2417,3.241,3.2406,3.2406,3.2406,3.2496,3.2418,3.2419,3.2419,3.242,3.242,3.2502,3.2486,3.2482,3.2467,3.2462,3.2455,3.2439,3.244,3.2425,3.241,3.2417,3.2395,3.2387,3.2368,3.2362,3.2344,3.2355,3.2345,3.2342,3.234,3.2337,3.241,3.2341,3.2342,3.2342,3.2342,3.2342,0,3.2429,3.2429,3.2415,3.2404,3.2392,3.2407,3.2398,3.2387,3.2368,3.2361,3.2348,3.2326,3.2309,3.2308,3.2291,3.2277,3.2282,3.2273,3.2273,3.2272,3.2328,3.2335,3.2269,3.2269,3.2269,3.2269,3.2269,3.2269,3.239,3.2363,3.2368,3.2339,3.2338,3.2318,3.2313,3.2305,3.23,3.2276,3.2263,3.2263,3.2258,3.2242,3.2226,3.2226,3.2219,3.2208,3.221,3.2261,3.2268,3.2275,3.2283,3.2206,3.2206,3.2156,3.2155,3.2155]}]]